| time (UTC) | temp C | wind direction | speed KPH | gust KPH | rain 1hr cm | rain 24hr cm | rain mn cm | humidity % | barometer mb |
| 20260903220540 | 17 | 53 | 0.0 | 0.0 | 0.20 | 0.20 | 0.20 | 98 | 1005.9 |
| 20260903220037 | 17 | 53 | 0.0 | 0.0 | 0.20 | 0.20 | 0.20 | 98 | 1006.1 |
| 20260903215536 | 17 | 53 | 0.0 | 0.0 | 0.20 | 0.20 | 0.20 | 98 | 1006.0 |
| 20260903215038 | 17 | 22 | 0.0 | 0.0 | 0.20 | 0.20 | 0.20 | 98 | 1006.1 |
| 20260903214538 | 16 | 67 | 0.0 | 1.6 | 0.20 | 0.20 | 0.20 | 97 | 1006.2 |
| 20260903214038 | 16 | 67 | 0.0 | 1.6 | 0.18 | 0.18 | 0.18 | 95 | 1006.3 |
| 20260903213518 | 17 | 75 | 0.0 | 3.2 | 0.15 | 0.15 | 0.15 | 91 | 1006.5 |
| 20260903213014 | 18 | 98 | 0.0 | 14.5 | 0.08 | 0.08 | 0.08 | 79 | 1006.6 |
| 20260903212515 | 20 | 39 | 0.0 | 14.5 | 0.03 | 0.03 | 0.03 | 73 | 1006.6 |
| 20260903212015 | 22 | 20 | 0.0 | 4.8 | 0.00 | 0.00 | 0.00 | 65 | 1006.4 |
| 20260903211513 | 22 | 55 | 0.0 | 4.8 | 0.00 | 0.00 | 0.00 | 59 | 1006.5 |
| 20260903211013 | 23 | 233 | 0.0 | 1.6 | 0.00 | 0.00 | 0.00 | 57 | 1006.5 |
| 20260903210616 | 23 | 232 | 0.0 | 8.0 | 0.00 | 0.00 | 0.00 | 57 | 1006.4 |
| 20260903210058 | 23 | 231 | 0.0 | 8.0 | 0.00 | 0.00 | 0.00 | 55 | 1006.4 |
| 20260903205555 | 23 | 246 | 0.0 | 0.0 | 0.00 | 0.00 | 0.00 | 56 | 1006.4 |
| 20260903205055 | 24 | 295 | 0.0 | 1.6 | 0.00 | 0.00 | 0.00 | 55 | 1006.5 |
| 20260903204555 | 24 | 233 | 0.0 | 3.2 | 0.00 | 0.00 | 0.00 | 54 | 1006.4 |
| 20260903204054 | 25 | 250 | 0.0 | 3.2 | 0.00 | 0.00 | 0.00 | 54 | 1006.4 |
| 20260903203554 | 25 | 253 | 0.0 | 1.6 | 0.00 | 0.00 | 0.00 | 54 | 1006.4 |
| 20260903203041 | 25 | 234 | 0.0 | 1.6 | 0.00 | 0.00 | 0.00 | 56 | 1006.5 |
| 20260903202535 | 25 | 239 | 0.0 | 14.5 | 0.00 | 0.00 | 0.00 | 54 | 1006.6 |
| 20260903202034 | 25 | 249 | 4.8 | 16.1 | 0.00 | 0.00 | 0.00 | 54 | 1006.7 |
| 20260903201534 | 25 | 293 | 0.0 | 1.6 | 0.00 | 0.00 | 0.00 | 53 | 1006.9 |
| 20260903201031 | 25 | 285 | 0.0 | 1.6 | 0.00 | 0.00 | 0.00 | 58 | 1007.1 |
| 20260903200529 | 25 | 210 | 0.0 | 14.5 | 0.00 | 0.00 | 0.00 | 56 | 1007.2 |
| 20260903200010 | 25 | 207 | 0.0 | 14.5 | 0.00 | 0.00 | 0.00 | 58 | 1007.4 |
| 20260903195512 | 25 | 259 | 0.0 | 11.3 | 0.00 | 0.00 | 0.00 | 58 | 1007.5 |
| 20260903195013 | 24 | 241 | 0.0 | 14.5 | 0.00 | 0.00 | 0.00 | 60 | 1007.5 |
| 20260903194508 | 24 | 258 | 1.6 | 14.5 | 0.00 | 0.00 | 0.00 | 59 | 1007.6 |
| 20260903194008 | 23 | 241 | 0.0 | 1.6 | 0.00 | 0.00 | 0.00 | 62 | 1007.6 |
| 20260903193505 | 23 | 250 | 0.0 | 1.6 | 0.00 | 0.00 | 0.00 | 62 | 1007.8 |
| 20260903193048 | 23 | 266 | 0.0 | 1.6 | 0.00 | 0.00 | 0.00 | 63 | 1007.7 |
| 20260903192549 | 23 | 229 | 0.0 | 1.6 | 0.00 | 0.00 | 0.00 | 63 | 1007.8 |
| 20260903192048 | 23 | 248 | 0.0 | 1.6 | 0.00 | 0.00 | 0.00 | 63 | 1007.9 |
| 20260903191546 | 24 | 252 | 0.0 | 1.6 | 0.00 | 0.00 | 0.00 | 59 | 1008.0 |
| 20260903191047 | 24 | 258 | 0.0 | 1.6 | 0.00 | 0.00 | 0.00 | 60 | 1008.1 |
| 20260903190544 | 23 | 250 | 0.0 | 1.6 | 0.00 | 0.00 | 0.00 | 63 | 1008.2 |
| 20260903190026 | 23 | 235 | 0.0 | 1.6 | 0.00 | 0.00 | 0.00 | 65 | 1008.3 |
| 20260903185524 | 23 | 263 | 0.0 | 1.6 | 0.00 | 0.00 | 0.00 | 65 | 1008.4 |
| 20260903185024 | 23 | 260 | 0.0 | 1.6 | 0.00 | 0.00 | 0.00 | 64 | 1008.7 |
| 20260903184523 | 23 | 262 | 0.0 | 1.6 | 0.00 | 0.00 | 0.00 | 61 | 1008.7 |
| 20260903184023 | 23 | 240 | 0.0 | 1.6 | 0.00 | 0.00 | 0.00 | 61 | 1008.8 |
| 20260903183522 | 23 | 360 | 0.0 | 0.0 | 0.00 | 0.00 | 0.00 | 58 | 1008.9 |
| 20260903183007 | 23 | 288 | 0.0 | 4.8 | 0.00 | 0.00 | 0.00 | 61 | 1009.1 |
| 20260903182502 | 23 | 27 | 0.0 | 3.2 | 0.00 | 0.00 | 0.00 | 60 | 1009.2 |
| 20260903182101 | 23 | 277 | 0.0 | 1.6 | 0.00 | 0.00 | 0.00 | 60 | 1009.3 |
| 20260903181601 | 23 | 303 | 0.0 | 1.6 | 0.00 | 0.00 | 0.00 | 60 | 1009.4 |
| 20260903181059 | 23 | 259 | 0.0 | 1.6 | 0.00 | 0.00 | 0.00 | 59 | 1009.7 |
| 20260903180559 | 24 | 266 | 0.0 | 0.0 | 0.00 | 0.00 | 0.00 | 59 | 1009.8 |
| 20260903180039 | 24 | 246 | 0.0 | 1.6 | 0.00 | 0.00 | 0.00 | 61 | 1009.9 |
| 20260903175538 | 23 | 170 | 0.0 | 1.6 | 0.00 | 0.00 | 0.00 | 58 | 1010.1 |
| 20260903175037 | 23 | 256 | 0.0 | 1.6 | 0.00 | 0.00 | 0.00 | 60 | 1010.2 |
| 20260903174536 | 23 | 257 | 0.0 | 0.0 | 0.00 | 0.00 | 0.00 | 60 | 1010.3 |
| 20260903174035 | 23 | 255 | 0.0 | 0.0 | 0.00 | 0.00 | 0.00 | 61 | 1010.4 |
| 20260903173534 | 23 | 162 | 0.0 | 0.0 | 0.00 | 0.00 | 0.00 | 60 | 1010.6 |
| 20260903173015 | 23 | 130 | 0.0 | 0.0 | 0.00 | 0.00 | 0.00 | 61 | 1010.6 |
| 20260903172513 | 22 | 47 | 0.0 | 0.0 | 0.00 | 0.00 | 0.00 | 63 | 1010.6 |
| 20260903172012 | 22 | 82 | 0.0 | 1.6 | 0.00 | 0.00 | 0.00 | 64 | 1010.7 |
| 20260903171511 | 21 | 62 | 0.0 | 1.6 | 0.00 | 0.00 | 0.00 | 62 | 1010.8 |
| 20260903171011 | 21 | 53 | 0.0 | 0.0 | 0.00 | 0.00 | 0.00 | 64 | 1010.9 |
| 20260903170509 | 21 | 69 | 0.0 | 1.6 | 0.00 | 0.00 | 0.00 | 65 | 1010.9 |
| 20260903170054 | 21 | 23 | 0.0 | 1.6 | 0.00 | 0.00 | 0.00 | 63 | 1011.0 |
| 20260903165551 | 21 | 39 | 0.0 | 1.6 | 0.00 | 0.00 | 0.00 | 64 | 1011.1 |
| 20260903165049 | 21 | 246 | 0.0 | 0.0 | 0.00 | 0.00 | 0.00 | 65 | 1011.1 |
| 20260903164549 | 21 | 246 | 0.0 | 0.0 | 0.00 | 0.00 | 0.00 | 68 | 1011.2 |
| 20260903164047 | 21 | 246 | 0.0 | 0.0 | 0.00 | 0.00 | 0.00 | 70 | 1011.1 |
| 20260903163545 | 20 | 245 | 0.0 | 0.0 | 0.00 | 0.00 | 0.00 | 72 | 1011.1 |
| 20260903163027 | 20 | 238 | 0.0 | 0.0 | 0.00 | 0.00 | 0.00 | 74 | 1011.2 |
| 20260903162525 | 20 | 236 | 0.0 | 1.6 | 0.00 | 0.00 | 0.00 | 78 | 1011.2 |
| 20260903162026 | 19 | 236 | 0.0 | 1.6 | 0.00 | 0.00 | 0.00 | 77 | 1011.2 |
| 20260903161522 | 18 | 262 | 0.0 | 1.6 | 0.00 | 0.00 | 0.00 | 78 | 1011.2 |
| 20260903161022 | 18 | 250 | 0.0 | 0.0 | 0.00 | 0.00 | 0.00 | 80 | 1011.3 |
| 20260903160522 | 18 | 226 | 0.0 | 0.0 | 0.00 | 0.00 | 0.00 | 79 | 1011.2 |
| 20260903160002 | 18 | 226 | 0.0 | 0.0 | 0.00 | 0.00 | 0.00 | 79 | 1011.1 |
| 20260903155602 | 18 | 226 | 0.0 | 0.0 | 0.00 | 0.00 | 0.00 | 81 | 1011.1 |
| 20260903155100 | 18 | 226 | 0.0 | 0.0 | 0.00 | 0.00 | 0.00 | 81 | 1011.2 |
| 20260903154600 | 18 | 224 | 0.0 | 0.0 | 0.00 | 0.00 | 0.00 | 81 | 1011.2 |
| 20260903154101 | 17 | 256 | 0.0 | 0.0 | 0.00 | 0.00 | 0.00 | 84 | 1011.3 |
| 20260903153602 | 17 | 256 | 0.0 | 0.0 | 0.00 | 0.00 | 0.00 | 86 | 1011.2 |
| 20260903153042 | 17 | 256 | 0.0 | 0.0 | 0.00 | 0.00 | 0.00 | 87 | 1011.3 |
| 20260903152541 | 17 | 256 | 0.0 | 0.0 | 0.00 | 0.00 | 0.00 | 87 | 1011.3 |
| 20260903152043 | 16 | 255 | 0.0 | 0.0 | 0.00 | 0.00 | 0.00 | 88 | 1011.3 |
| 20260903151542 | 16 | 256 | 0.0 | 0.0 | 0.00 | 0.00 | 0.00 | 88 | 1011.5 |
| 20260903151041 | 16 | 257 | 0.0 | 0.0 | 0.00 | 0.00 | 0.00 | 88 | 1011.5 |
| 20260903150541 | 16 | 257 | 0.0 | 0.0 | 0.00 | 0.00 | 0.00 | 89 | 1011.5 |
| 20260903150024 | 16 | 257 | 0.0 | 0.0 | 0.00 | 0.00 | 0.00 | 89 | 1011.5 |
| 20260903145522 | 16 | 257 | 0.0 | 0.0 | 0.00 | 0.00 | 0.00 | 90 | 1011.5 |
| 20260903145025 | 16 | 257 | 0.0 | 0.0 | 0.00 | 0.00 | 0.00 | 90 | 1011.5 |
| 20260903144522 | 16 | 256 | 0.0 | 0.0 | 0.00 | 0.00 | 0.00 | 91 | 1011.5 |
| 20260903144021 | 16 | 256 | 0.0 | 0.0 | 0.00 | 0.00 | 0.00 | 91 | 1011.4 |
| 20260903143522 | 16 | 287 | 0.0 | 0.0 | 0.00 | 0.00 | 0.00 | 91 | 1011.4 |
| 20260903143010 | 16 | 272 | 0.0 | 0.0 | 0.00 | 0.00 | 0.00 | 92 | 1011.5 |
| 20260903142512 | 15 | 271 | 0.0 | 0.0 | 0.00 | 0.00 | 0.00 | 92 | 1011.5 |
| 20260903142009 | 15 | 269 | 0.0 | 0.0 | 0.00 | 0.00 | 0.00 | 92 | 1011.5 |
| 20260903141511 | 15 | 264 | 0.0 | 0.0 | 0.00 | 0.00 | 0.00 | 93 | 1011.3 |
| 20260903141009 | 15 | 290 | 0.0 | 0.0 | 0.00 | 0.00 | 0.00 | 93 | 1011.4 |
| 20260903140509 | 15 | 290 | 0.0 | 0.0 | 0.00 | 0.00 | 0.00 | 93 | 1011.4 |
| 20260903140012 | 15 | 290 | 0.0 | 0.0 | 0.00 | 0.00 | 0.00 | 93 | 1011.4 |
| 20260903135508 | 15 | 5 | 0.0 | 0.0 | 0.00 | 0.00 | 0.00 | 93 | 1011.3 |
| 20260903135008 | 15 | 6 | 0.0 | 0.0 | 0.00 | 0.00 | 0.00 | 93 | 1011.3 |
| 20260903134509 | 15 | 6 | 0.0 | 0.0 | 0.00 | 0.00 | 0.00 | 93 | 1011.3 |
| 20260903134009 | 14 | 6 | 0.0 | 0.0 | 0.00 | 0.00 | 0.00 | 94 | 1011.3 |
| 20260903133507 | 14 | 6 | 0.0 | 0.0 | 0.00 | 0.00 | 0.00 | 94 | 1011.2 |
| 20260903133007 | 14 | 6 | 0.0 | 0.0 | 0.00 | 0.00 | 0.00 | 94 | 1011.2 |
| 20260903132508 | 14 | 6 | 0.0 | 0.0 | 0.00 | 0.00 | 0.00 | 94 | 1011.3 |
| 20260903132006 | 14 | 6 | 0.0 | 0.0 | 0.00 | 0.00 | 0.00 | 93 | 1011.3 |
| 20260903131505 | -17 | 0.0 | 0.0 | 0.00 | 0.00 | 0.00 | 1011.2 | ||
| 20260903131004 | -17 | 0.0 | 0.0 | 0.00 | 0.00 | 0.00 | 1011.2 | ||
| 20260903130503 | -17 | 0.0 | 0.0 | 0.00 | 0.00 | 0.00 | 1011.2 | ||
| 20260903130001 | -17 | 0.0 | 0.0 | 0.00 | 0.00 | 0.00 | 1011.1 | ||
| 20260903125600 | -17 | 0.0 | 0.0 | 0.00 | 0.00 | 0.00 | 1011.0 | ||
| 20260903125059 | -17 | 0.0 | 0.0 | 0.00 | 0.00 | 0.00 | 1011.0 | ||
| 20260903124558 | -17 | 0.0 | 0.0 | 0.00 | 0.00 | 0.00 | 1011.1 | ||
| 20260903124054 | -17 | 0.0 | 0.0 | 0.00 | 0.00 | 0.00 | 1011.1 | ||
| 20260903123554 | -17 | 0.0 | 0.0 | 0.00 | 0.00 | 0.00 | 1011.1 | ||
| 20260903123053 | -17 | 0.0 | 0.0 | 0.00 | 0.00 | 0.00 | 1010.9 | ||
| 20260903122533 | -17 | 0.0 | 0.0 | 0.00 | 0.00 | 0.00 | 1010.8 | ||
| 20260903122032 | -17 | 0.0 | 0.0 | 0.00 | 0.00 | 0.00 | 1010.9 | ||
| 20260903121540 | -17 | 0.0 | 0.0 | 0.00 | 0.00 | 0.00 | 1010.9 | ||
| 20260903121030 | -17 | 0.0 | 0.0 | 0.00 | 0.00 | 0.00 | 1010.8 | ||
| 20260903120532 | -17 | 0.0 | 0.0 | 0.00 | 0.00 | 0.00 | 1010.9 | ||
| 20260903120033 | -17 | 0.0 | 0.0 | 0.00 | 0.00 | 0.00 | 1010.9 | ||
| 20260903115511 | -17 | 0.0 | 0.0 | 0.00 | 0.00 | 0.00 | 1010.9 | ||
| 20260903115005 | -17 | 0.0 | 0.0 | 0.00 | 0.00 | 0.00 | 1010.8 | ||
| 20260903114505 | -17 | 0.0 | 0.0 | 0.00 | 0.00 | 0.00 | 1010.8 | ||
| 20260903114004 | -17 | 0.0 | 0.0 | 0.00 | 0.00 | 0.00 | 1010.8 | ||
| 20260903113502 | -17 | 0.0 | 0.0 | 0.00 | 0.00 | 0.00 | 1010.8 | ||
| 20260903113103 | -17 | 0.0 | 0.0 | 0.00 | 0.00 | 0.00 | 1010.8 | ||
| 20260903112542 | -17 | 0.0 | 0.0 | 0.00 | 0.00 | 0.00 | 1010.8 | ||
| 20260903112040 | -17 | 0.0 | 0.0 | 0.00 | 0.00 | 0.00 | 1010.9 | ||
| 20260903111538 | -17 | 0.0 | 0.0 | 0.00 | 0.00 | 0.00 | 1010.8 | ||
| 20260903111038 | -17 | 0.0 | 0.0 | 0.00 | 0.00 | 0.00 | 1010.9 | ||
| 20260903110536 | -17 | 0.0 | 0.0 | 0.00 | 0.00 | 0.00 | 1010.9 | ||
| 20260903110033 | -17 | 0.0 | 0.0 | 0.00 | 0.00 | 0.00 | 1010.9 | ||
| 20260903105515 | -17 | 0.0 | 0.0 | 0.00 | 0.00 | 0.00 | 1011.1 | ||
| 20260903105016 | -17 | 0.0 | 0.0 | 0.00 | 0.00 | 0.00 | 1011.1 | ||
| 20260903104513 | -17 | 0.0 | 0.0 | 0.00 | 0.00 | 0.00 | 1011.1 | ||
| 20260903104012 | -17 | 0.0 | 0.0 | 0.00 | 0.00 | 0.00 | 1011.1 | ||
| 20260903103509 | -17 | 0.0 | 0.0 | 0.00 | 0.00 | 0.00 | 1011.2 | ||
| 20260903103008 | -17 | 0.0 | 0.0 | 0.00 | 0.00 | 0.00 | 1011.3 | ||
| 20260903102552 | -17 | 0.0 | 0.0 | 0.00 | 0.00 | 0.00 | 1011.3 | ||
| 20260903102048 | -17 | 0.0 | 0.0 | 0.00 | 0.00 | 0.00 | 1011.4 | ||
| 20260903101549 | -17 | 0.0 | 0.0 | 0.00 | 0.00 | 0.00 | 1011.3 | ||
| 20260903101046 | -17 | 0.0 | 0.0 | 0.00 | 0.00 | 0.00 | 1011.3 | ||
| 20260903100544 | -17 | 0.0 | 0.0 | 0.00 | 0.00 | 0.00 | 1011.4 | ||
| 20260903100046 | -17 | 0.0 | 0.0 | 0.00 | 0.00 | 0.00 | 1011.2 | ||
| 20260903095524 | -17 | 0.0 | 0.0 | 0.00 | 0.00 | 0.00 | 1011.2 | ||
| 20260903095022 | -17 | 0.0 | 0.0 | 0.00 | 0.00 | 0.00 | 1011.3 | ||
| 20260903094521 | -17 | 0.0 | 0.0 | 0.00 | 0.00 | 0.00 | 1011.4 | ||
| 20260903094020 | -17 | 0.0 | 0.0 | 0.00 | 0.00 | 0.00 | 1011.4 | ||
| 20260903093520 | -17 | 0.0 | 0.0 | 0.00 | 0.00 | 0.00 | 1011.3 | ||
| 20260903093016 | -17 | 0.0 | 0.0 | 0.00 | 0.00 | 0.00 | 1011.4 | ||
| 20260903092557 | -17 | 0.0 | 0.0 | 0.00 | 0.00 | 0.00 | 1011.5 | ||
| 20260903092056 | -17 | 0.0 | 0.0 | 0.00 | 0.00 | 0.00 | 1011.4 | ||
| 20260903091555 | 15 | 148 | 0.0 | 1.6 | 0.00 | 0.00 | 0.00 | 90 | 1011.5 |
| 20260903091055 | 15 | 148 | 0.0 | 1.6 | 0.00 | 0.00 | 0.00 | 90 | 1011.6 |
| 20260903090555 | 16 | 124 | 0.0 | 0.0 | 0.00 | 0.00 | 0.00 | 88 | 1011.6 |
| 20260903090055 | 16 | 101 | 0.0 | 1.6 | 0.00 | 0.00 | 0.00 | 88 | 1011.7 |
| 20260903085538 | 16 | 100 | 0.0 | 1.6 | 0.00 | 0.00 | 0.00 | 88 | 1011.7 |
| 20260903085038 | 16 | 143 | 0.0 | 1.6 | 0.00 | 0.00 | 0.00 | 88 | 1011.5 |
| 20260903084539 | 16 | 160 | 0.0 | 1.6 | 0.00 | 0.00 | 0.00 | 88 | 1011.5 |
| 20260903084037 | 16 | 113 | 0.0 | 1.6 | 0.00 | 0.00 | 0.00 | 88 | 1011.5 |
| 20260903083538 | 16 | 61 | 0.0 | 0.0 | 0.00 | 0.00 | 0.00 | 89 | 1011.5 |
| 20260903083044 | 16 | 67 | 0.0 | 0.0 | 0.00 | 0.00 | 0.00 | 89 | 1011.7 |
| 20260903082521 | 16 | 60 | 0.0 | 0.0 | 0.00 | 0.00 | 0.00 | 89 | 1011.7 |
| 20260903082023 | 16 | 72 | 0.0 | 0.0 | 0.00 | 0.00 | 0.00 | 89 | 1011.8 |
| 20260903081519 | 16 | 72 | 0.0 | 0.0 | 0.00 | 0.00 | 0.00 | 89 | 1011.8 |
| 20260903081020 | 16 | 79 | 0.0 | 0.0 | 0.00 | 0.00 | 0.00 | 90 | 1012.0 |
| 20260903080518 | 16 | 79 | 0.0 | 1.6 | 0.00 | 0.00 | 0.00 | 91 | 1012.0 |
| 20260903080019 | 16 | 73 | 0.0 | 4.8 | 0.00 | 0.00 | 0.00 | 91 | 1012.0 |
| 20260903075506 | 16 | 96 | 0.0 | 4.8 | 0.00 | 0.00 | 0.00 | 92 | 1012.1 |
| 20260903075009 | 15 | 248 | 0.0 | 1.6 | 0.00 | 0.00 | 0.00 | 92 | 1012.0 |
| 20260903074507 | 15 | 249 | 0.0 | 0.0 | 0.00 | 0.00 | 0.00 | 92 | 1011.8 |
| 20260903074005 | 15 | 249 | 0.0 | 1.6 | 0.00 | 0.00 | 0.00 | 92 | 1011.7 |
| 20260903073505 | 15 | 249 | 0.0 | 1.6 | 0.00 | 0.00 | 0.00 | 92 | 1011.7 |
| 20260903073007 | 15 | 238 | 0.0 | 0.0 | 0.00 | 0.00 | 0.00 | 93 | 1011.8 |
| 20260903072505 | 15 | 236 | 0.0 | 0.0 | 0.00 | 0.00 | 0.00 | 93 | 1011.9 |
| 20260903072005 | 15 | 236 | 0.0 | 0.0 | 0.00 | 0.00 | 0.00 | 93 | 1011.8 |
| 20260903071505 | 15 | 246 | 0.0 | 0.0 | 0.00 | 0.00 | 0.00 | 93 | 1011.8 |
| 20260903071004 | 15 | 264 | 0.0 | 0.0 | 0.00 | 0.00 | 0.00 | 93 | 1011.7 |
| 20260903070506 | 15 | 264 | 0.0 | 0.0 | 0.00 | 0.00 | 0.00 | 92 | 1011.6 |
| 20260903070013 | 15 | 264 | 0.0 | 0.0 | 0.00 | 0.00 | 0.00 | 92 | 1011.6 |
| 20260903065503 | 15 | 264 | 0.0 | 0.0 | 0.00 | 0.00 | 0.00 | 92 | 1011.5 |
| 20260903065002 | 15 | 319 | 0.0 | 0.0 | 0.00 | 0.08 | 0.00 | 91 | 1011.6 |
| 20260903064502 | 15 | 75 | 0.0 | 0.0 | 0.00 | 0.08 | 0.00 | 90 | 1011.5 |
| 20260903064001 | 16 | 75 | 0.0 | 0.0 | 0.00 | 0.08 | 0.00 | 88 | 1011.5 |
| 20260903063600 | 16 | 75 | 0.0 | 0.0 | 0.00 | 0.08 | 0.00 | 87 | 1011.6 |
| 20260903063108 | 16 | 75 | 0.0 | 0.0 | 0.00 | 0.08 | 0.00 | 85 | 1011.6 |
| 20260903062558 | 16 | 75 | 0.0 | 0.0 | 0.00 | 0.08 | 0.00 | 85 | 1011.7 |
| 20260903062058 | 16 | 75 | 0.0 | 0.0 | 0.00 | 0.08 | 0.00 | 85 | 1011.8 |
| 20260903061608 | 16 | 75 | 0.0 | 0.0 | 0.00 | 0.08 | 0.00 | 85 | 1011.8 |
| 20260903061103 | 16 | 75 | 0.0 | 0.0 | 0.00 | 0.08 | 0.00 | 85 | 1011.9 |
| 20260903060558 | 16 | 75 | 0.0 | 0.0 | 0.00 | 0.08 | 0.00 | 84 | 1012.0 |
| 20260903060058 | 16 | 75 | 0.0 | 0.0 | 0.00 | 0.08 | 0.00 | 85 | 1011.9 |
| 20260903055558 | 16 | 75 | 0.0 | 0.0 | 0.00 | 0.08 | 0.00 | 85 | 1012.0 |
| 20260903055039 | 16 | 75 | 0.0 | 0.0 | 0.00 | 0.13 | 0.00 | 85 | 1012.1 |
| 20260903054539 | 16 | 75 | 0.0 | 0.0 | 0.00 | 0.13 | 0.00 | 85 | 1012.2 |
| 20260903054038 | 16 | 75 | 0.0 | 0.0 | 0.00 | 0.13 | 0.00 | 85 | 1012.4 |
| 20260903053539 | 16 | 75 | 0.0 | 0.0 | 0.00 | 0.13 | 0.00 | 84 | 1012.4 |
| 20260903053039 | 16 | 62 | 0.0 | 0.0 | 0.00 | 0.13 | 0.00 | 84 | 1012.5 |
| 20260903052538 | 16 | 63 | 0.0 | 0.0 | 0.00 | 0.13 | 0.00 | 84 | 1012.6 |
| 20260903052021 | 16 | 63 | 0.0 | 0.0 | 0.00 | 0.13 | 0.00 | 84 | 1012.6 |
| 20260903051521 | 16 | 63 | 0.0 | 0.0 | 0.00 | 0.13 | 0.00 | 85 | 1012.6 |
| 20260903051021 | 16 | 63 | 0.0 | 0.0 | 0.00 | 0.13 | 0.00 | 85 | 1012.6 |
| 20260903050520 | 16 | 63 | 0.0 | 0.0 | 0.00 | 0.13 | 0.00 | 85 | 1012.6 |
| 20260903050019 | 16 | 63 | 0.0 | 0.0 | 0.00 | 0.13 | 0.00 | 85 | 1012.5 |
| 20260903045520 | 16 | 62 | 0.0 | 0.0 | 0.00 | 0.13 | 0.00 | 85 | 1012.5 |
| 20260903045006 | 16 | 63 | 0.0 | 0.0 | 0.00 | 0.30 | 0.00 | 85 | 1012.6 |
| 20260903044505 | 16 | 61 | 0.0 | 0.0 | 0.00 | 0.30 | 0.00 | 84 | 1012.5 |
| 20260903044005 | 16 | 63 | 0.0 | 0.0 | 0.00 | 0.30 | 0.00 | 84 | 1012.5 |
| 20260903043508 | 16 | 70 | 0.0 | 0.0 | 0.00 | 0.30 | 0.00 | 83 | 1012.6 |
| 20260903043004 | 17 | 70 | 0.0 | 0.0 | 0.00 | 0.30 | 0.00 | 82 | 1012.5 |
| 20260903042504 | 17 | 69 | 0.0 | 0.0 | 0.00 | 0.30 | 0.00 | 82 | 1012.4 |
| 20260903042002 | 17 | 69 | 0.0 | 0.0 | 0.00 | 0.30 | 0.00 | 81 | 1012.5 |
| 20260903041502 | 17 | 70 | 0.0 | 0.0 | 0.00 | 0.30 | 0.00 | 79 | 1012.4 |
| 20260903041002 | 17 | 217 | 0.0 | 0.0 | 0.00 | 0.30 | 0.00 | 77 | 1012.3 |
| 20260903040502 | 17 | 217 | 0.0 | 0.0 | 0.00 | 0.30 | 0.00 | 75 | 1012.3 |
| 20260903040002 | 17 | 217 | 0.0 | 0.0 | 0.00 | 0.30 | 0.00 | 75 | 1012.3 |
| 20260903035503 | 17 | 217 | 0.0 | 0.0 | 0.00 | 0.30 | 0.00 | 74 | 1012.2 |
| 20260903035002 | 17 | 217 | 0.0 | 0.0 | 0.00 | 0.30 | 0.00 | 74 | 1012.1 |
| 20260903034502 | 17 | 217 | 0.0 | 1.6 | 0.00 | 0.30 | 0.00 | 74 | 1012.0 |
| 20260903034002 | 17 | 217 | 0.0 | 1.6 | 0.00 | 0.30 | 0.00 | 74 | 1011.8 |
| 20260903033500 | 17 | 250 | 0.0 | 1.6 | 0.00 | 0.30 | 0.00 | 74 | 1011.8 |
| 20260903033100 | 17 | 229 | 0.0 | 1.6 | 0.00 | 0.30 | 0.00 | 74 | 1011.7 |
| 20260903032601 | 17 | 240 | 0.0 | 1.6 | 0.00 | 0.30 | 0.00 | 74 | 1011.6 |
| 20260903032502 | 17 | 226 | 0.0 | 1.6 | 0.00 | 0.30 | 0.00 | 74 | 1011.5 |
| 20260903032100 | 17 | 253 | 0.0 | 0.0 | 0.00 | 0.30 | 0.00 | 75 | 1011.5 |
| 20260903032000 | 17 | 253 | 0.0 | 0.0 | 0.00 | 0.30 | 0.00 | 75 | 1011.6 |
| 20260903031603 | 17 | 253 | 0.0 | 1.6 | 0.00 | 0.30 | 0.00 | 74 | 1011.7 |
| 20260903031102 | 17 | 250 | 0.0 | 1.6 | 0.00 | 0.30 | 0.00 | 73 | 1011.5 |
| 20260903030600 | 17 | 243 | 0.0 | 1.6 | 0.00 | 0.30 | 0.00 | 74 | 1011.4 |
| 20260903030100 | 17 | 271 | 0.0 | 1.6 | 0.00 | 0.30 | 0.00 | 75 | 1011.3 |
| 20260903025559 | 17 | 242 | 0.0 | 1.6 | 0.00 | 0.30 | 0.00 | 74 | 1011.3 |
| 20260903025042 | 17 | 243 | 0.0 | 1.6 | 0.00 | 0.30 | 0.00 | 73 | 1011.1 |
| 20260903024544 | 17 | 228 | 0.0 | 1.6 | 0.00 | 0.30 | 0.00 | 73 | 1010.8 |
| 20260903024046 | 17 | 240 | 0.0 | 1.6 | 0.00 | 0.30 | 0.00 | 74 | 1010.7 |
| 20260903023541 | 17 | 236 | 0.0 | 1.6 | 0.00 | 0.30 | 0.00 | 74 | 1010.7 |
| 20260903023043 | 17 | 260 | 0.0 | 1.6 | 0.00 | 0.30 | 0.00 | 74 | 1010.3 |
| 20260903022541 | 17 | 284 | 0.0 | 1.6 | 0.00 | 0.30 | 0.00 | 75 | 1010.2 |
| 20260903022027 | 17 | 259 | 0.0 | 1.6 | 0.00 | 0.30 | 0.00 | 75 | 1010.2 |
| 20260903021528 | 17 | 250 | 0.0 | 1.6 | 0.00 | 0.30 | 0.00 | 76 | 1010.2 |
| 20260903021028 | 17 | 243 | 0.0 | 1.6 | 0.00 | 0.30 | 0.00 | 76 | 1010.0 |
| 20260903020529 | 17 | 252 | 0.0 | 1.6 | 0.00 | 0.30 | 0.00 | 76 | 1009.9 |
| 20260903020037 | 17 | 256 | 0.0 | 1.6 | 0.00 | 0.30 | 0.00 | 77 | 1009.9 |
| 20260903015527 | 17 | 222 | 0.0 | 1.6 | 0.00 | 0.30 | 0.00 | 77 | 1009.9 |
| 20260903015027 | 17 | 251 | 0.0 | 1.6 | 0.00 | 0.30 | 0.00 | 78 | 1009.9 |
| 20260903014533 | 17 | 228 | 0.0 | 1.6 | 0.00 | 0.30 | 0.00 | 78 | 1009.9 |
| 20260903014031 | 17 | 238 | 0.0 | 1.6 | 0.00 | 0.30 | 0.00 | 78 | 1009.7 |
| 20260903013526 | 17 | 166 | 0.0 | 16.1 | 0.00 | 0.30 | 0.00 | 78 | 1009.8 |
| 20260903013026 | 17 | 240 | 4.8 | 19.3 | 0.00 | 0.30 | 0.00 | 78 | 1009.9 |
| 20260903012525 | 17 | 240 | 11.3 | 19.3 | 0.00 | 0.30 | 0.00 | 78 | 1009.7 |
| 20260903012024 | 17 | 255 | 9.7 | 17.7 | 0.00 | 0.30 | 0.00 | 80 | 1009.7 |
| 20260903011526 | 17 | 233 | 9.7 | 19.3 | 0.00 | 0.30 | 0.00 | 80 | 1009.7 |
| 20260903011026 | 17 | 250 | 11.3 | 19.3 | 0.00 | 0.30 | 0.00 | 81 | 1009.7 |
| 20260903010523 | 17 | 224 | 8.0 | 19.3 | 0.00 | 0.30 | 0.00 | 82 | 1009.7 |
| 20260903010027 | 17 | 211 | 3.2 | 19.3 | 0.00 | 0.30 | 0.00 | 82 | 1009.7 |
| 20260903005522 | 17 | 257 | 6.4 | 20.9 | 0.00 | 0.30 | 0.00 | 81 | 1009.6 |
| 20260903005022 | 17 | 235 | 12.9 | 25.7 | 0.00 | 0.30 | 0.00 | 80 | 1009.6 |
| 20260903004521 | 17 | 257 | 12.9 | 27.4 | 0.00 | 0.30 | 0.00 | 79 | 1009.7 |
| 20260903004021 | 17 | 174 | 17.7 | 27.4 | 0.00 | 0.30 | 0.00 | 79 | 1009.8 |
| 20260903003520 | 17 | 239 | 16.1 | 24.1 | 0.00 | 0.30 | 0.00 | 79 | 1009.7 |
| 20260903003019 | 17 | 257 | 11.3 | 19.3 | 0.00 | 0.30 | 0.00 | 81 | 1009.7 |
| 20260903002522 | 17 | 246 | 11.3 | 22.5 | 0.00 | 0.30 | 0.00 | 81 | 1009.8 |
| 20260903002118 | 17 | 240 | 9.7 | 29.0 | 0.00 | 0.30 | 0.00 | 80 | 1009.9 |
| 20260903001603 | 17 | 225 | 16.1 | 29.0 | 0.00 | 0.30 | 0.00 | 79 | 1009.9 |
| 20260903001057 | 17 | 231 | 17.7 | 30.6 | 0.00 | 0.30 | 0.00 | 78 | 1009.6 |
| 20260903000600 | 18 | 243 | 9.7 | 19.3 | 0.00 | 0.30 | 0.00 | 78 | 1009.4 |
| 20260903000055 | 18 | 221 | 11.3 | 19.3 | 0.00 | 0.30 | 0.00 | 78 | 1009.2 |
| 20260902235554 | 18 | 233 | 12.9 | 22.5 | 0.00 | 0.30 | 0.00 | 77 | 1009.3 |
| 20260902235053 | 19 | 221 | 16.1 | 22.5 | 0.00 | 0.30 | 0.00 | 75 | 1009.5 |
| 20260902234635 | 19 | 216 | 11.3 | 19.3 | 0.00 | 0.30 | 0.00 | 73 | 1009.4 |
| 20260902234034 | 20 | 219 | 8.0 | 20.9 | 0.00 | 0.30 | 0.00 | 72 | 1009.4 |
| 20260902233539 | 20 | 194 | 11.3 | 24.1 | 0.00 | 0.30 | 0.00 | 70 | 1009.3 |
| 20260902233037 | 21 | 240 | 12.9 | 24.1 | 0.00 | 0.30 | 0.00 | 67 | 1009.3 |
| 20260902232536 | 21 | 250 | 12.9 | 19.3 | 0.00 | 0.30 | 0.00 | 64 | 1009.2 |
| 20260902232036 | 22 | 236 | 0.0 | 9.7 | 0.00 | 0.30 | 0.00 | 65 | 1009.1 |
| 20260902231538 | 22 | 259 | 0.0 | 9.7 | 0.00 | 0.30 | 0.00 | 67 | 1009.0 |
| 20260902231027 | 22 | 246 | 0.0 | 1.6 | 0.00 | 0.30 | 0.00 | 66 | 1008.9 |
| 20260902230526 | 22 | 243 | 0.0 | 1.6 | 0.00 | 0.30 | 0.00 | 64 | 1008.9 |
| 20260902230022 | 22 | 255 | 0.0 | 1.6 | 0.00 | 0.30 | 0.00 | 64 | 1008.9 |
| 20260902225526 | 22 | 210 | 0.0 | 1.6 | 0.00 | 0.30 | 0.00 | 64 | 1008.8 |
| 20260902225024 | 22 | 56 | 0.0 | 0.0 | 0.00 | 0.30 | 0.00 | 65 | 1008.9 |
| 20260902224522 | 22 | 57 | 0.0 | 3.2 | 0.00 | 0.30 | 0.00 | 64 | 1008.8 |
| 20260902224024 | 23 | 124 | 0.0 | 3.2 | 0.00 | 0.30 | 0.00 | 63 | 1008.8 |
| 20260902223521 | 23 | 256 | 0.0 | 0.0 | 0.00 | 0.30 | 0.00 | 65 | 1008.8 |
| 20260902223034 | 22 | 256 | 0.0 | 0.0 | 0.00 | 0.30 | 0.00 | 65 | 1008.9 |
| 20260902222524 | 22 | 256 | 0.0 | 0.0 | 0.00 | 0.30 | 0.00 | 67 | 1008.9 |
| 20260902222024 | 23 | 256 | 0.0 | 0.0 | 0.00 | 0.30 | 0.00 | 65 | 1009.0 |
| 20260902221524 | 23 | 277 | 0.0 | 0.0 | 0.00 | 0.30 | 0.00 | 63 | 1009.1 |
| 20260902221120 | 23 | 79 | 0.0 | 0.0 | 0.00 | 0.30 | 0.00 | 60 | 1009.1 |